Raleigh-Durham Airport, NC

7:36 PM EST on December 10, 2017 (GMT -0500)
Raleigh-Durham International

Weather History for KRDU - May, 2014

Change the Weather History Date:

Thursday, May 8, 2014

  Actual Average Record
Temperature  
Mean Temperature 72 °F 66 °F  
Max Temperature 89 °F 78 °F 95 °F (1940)
Min Temperature 55 °F 54 °F 36 °F (1989)
Degree Days  
Heating Degree Days 0 2  
Month to date heating degree days 6 24  
Since 1 July heating degree days 3457 3213  
Cooling Degree Days 7 3  
Month to date cooling degree days 23 24  
Year to date cooling degree days 54 85  
Growing Degree Days 22 (Base 50)    
Moisture  
Dew Point 57 °F    
Average Humidity 65    
Maximum Humidity 100    
Minimum Humidity 29    
Precipitation  
Precipitation 0.00 in 0.10 in 2.10 in (1960)
Month to date precipitation T 0.74  
Year to date precipitation 15.25 14.50  
Sea Level Pressure  
Sea Level Pressure 30.12 in    
Wind  
Wind Speed 6 mph (WSW)    
Max Wind Speed 21 mph    
Max Gust Speed 26 mph    
Visibility 8 miles    
Events Fog    
T = Trace of Precipitation, MM = Missing Value Source: NWS Daily Summary

Daily Weather History Graph

Daily Weather History Graph

Search for Another Location

Airport or City:

Trip Planner

Search our weather history database for the weather conditions in past years. The results will help you decide how hot, cold, wet, or windy it might be!

Date:

Astronomy

May. 08, 2014 Rise Set
Actual Time 6:15 AM EDT 8:08 PM EDT
Civil Twilight 5:47 AM EDT 8:36 PM EDT
Nautical Twilight 5:13 AM EDT 9:10 PM EDT
Astronomical Twilight 4:37 AM EDT 9:46 PM EDT
Moon 2:18 PM EDT (5/8) 2:33 AM EDT (5/8)
Length of Visible Light 14h 48m
Length of Day
13h 52m
Waxing Gibbous, 64% of the Moon is Illuminated
May 8
Waxing Gibbous
May 14
Full
May 21
Last Quarter
May 28
New
Jun 5
First Quarter

Hourly Weather History & Observations

Time (EDT) Temp. Heat Index Dew Point Humidity Pressure Visibility Wind Dir Wind Speed Gust Speed Precip Events Conditions
12:51 AM 62.1 °F - 59.0 °F 90% 30.11 in 5.0 mi Calm Calm - N/A   Partly Cloudy
1:51 AM 62.1 °F - 60.1 °F 93% 30.09 in 4.0 mi Calm Calm - N/A   Partly Cloudy
2:51 AM 60.1 °F - 57.9 °F 93% 30.09 in 4.0 mi Calm Calm - N/A Fog Patches of Fog
3:51 AM 60.1 °F - 57.9 °F 93% 30.09 in 5.0 mi Calm Calm - N/A Fog Patches of Fog
4:51 AM 59.0 °F - 57.2 °F 94% 30.11 in 3.0 mi Calm Calm - N/A Fog Patches of Fog
5:20 AM 55.4 °F - 55.4 °F 100% 30.12 in 2.0 mi Calm Calm - N/A Fog Patches of Fog
5:51 AM 57.0 °F - 55.0 °F 93% 30.12 in 2.0 mi Calm Calm - N/A Fog Patches of Fog
6:51 AM 57.9 °F - 57.0 °F 97% 30.16 in 2.0 mi Calm Calm - N/A Fog Patches of Fog
7:16 AM 60.8 °F - 57.2 °F 88% 30.17 in 4.0 mi Calm Calm - N/A Fog Patches of Fog
7:51 AM 64.4 °F - 62.6 °F 94% 30.17 in 6.0 mi SW 4.6 mph - N/A   Partly Cloudy
8:51 AM 71.1 °F - 64.0 °F 78% 30.17 in 10.0 mi SW 6.9 mph - N/A   Partly Cloudy
9:51 AM 77.0 °F - 62.1 °F 60% 30.17 in 10.0 mi WSW 6.9 mph - N/A   Partly Cloudy
10:51 AM 81.0 °F 81.6 °F 60.1 °F 49% 30.18 in 10.0 mi WSW 11.5 mph - N/A   Mostly Cloudy
11:51 AM 82.9 °F 82.8 °F 59.0 °F 44% 30.17 in 10.0 mi West 9.2 mph - N/A   Scattered Clouds
12:51 PM 86.0 °F 84.2 °F 54.0 °F 33% 30.15 in 10.0 mi West 12.7 mph 23.0 mph N/A   Partly Cloudy
1:51 PM 87.1 °F 84.9 °F 53.1 °F 31% 30.13 in 10.0 mi Variable 5.8 mph 16.1 mph N/A   Partly Cloudy
2:51 PM 88.0 °F - 52.0 °F 29% 30.11 in 10.0 mi WSW 11.5 mph 21.9 mph N/A   Partly Cloudy
3:51 PM 88.0 °F 86.7 °F 57.0 °F 35% 30.09 in 10.0 mi WSW 12.7 mph - N/A   Partly Cloudy
4:51 PM 88.0 °F 86.7 °F 57.0 °F 35% 30.07 in 10.0 mi SW 13.8 mph - N/A   Partly Cloudy
5:51 PM 87.1 °F 85.1 °F 54.0 °F 32% 30.08 in 10.0 mi WSW 12.7 mph - N/A   Partly Cloudy
6:51 PM 84.0 °F 82.5 °F 53.1 °F 34% 30.07 in 10.0 mi WSW 10.4 mph - N/A   Partly Cloudy
7:51 PM 78.1 °F - 55.0 °F 45% 30.09 in 10.0 mi WSW 5.8 mph - N/A   Scattered Clouds
8:51 PM 75.0 °F - 55.0 °F 50% 30.09 in 10.0 mi WSW 6.9 mph - N/A   Scattered Clouds
9:51 PM 72.0 °F - 55.0 °F 55% 30.11 in 10.0 mi WSW 8.1 mph - N/A   Scattered Clouds
10:51 PM 73.4 °F - 55.4 °F 53% 30.13 in 10.0 mi WSW 5.8 mph - N/A   Partly Cloudy
11:51 PM 71.1 °F - 55.0 °F 57% 30.11 in 10.0 mi SW 5.8 mph - N/A   Scattered Clouds